Emporia, VA

12:15 AM EDT on October 18, 2019 (GMT -0400)
Emporia-Greensville Regional

Weather History for KEMV - September, 2019

Change the Weather History Date:

Friday, September 20, 2019

  Actual Average Record
Temperature  
Mean Temperature 60 °F -  
Max Temperature 76 °F 81 °F 91 °F (1983)
Min Temperature 45 °F 58 °F 45 °F (2019)
Degree Days  
Heating Degree Days 4    
Growing Degree Days 10 (Base 50)    
Moisture  
Dew Point 51 °F    
Average Humidity 78    
Maximum Humidity 100    
Minimum Humidity 43    
Precipitation  
Precipitation 0.00 in - - ()
Sea Level Pressure  
Sea Level Pressure 30.31 in    
Wind  
Wind Speed 0 mph (SSE)    
Max Wind Speed 6 mph    
Max Gust Speed -    
Visibility 10 miles    
Events      
Averages and records for this station are not official NWS values.
T = Trace of Precipitation, MM = Missing Value Source: NWS Daily Summary

Daily Weather History Graph

Daily Weather History Graph

Search for Another Location

Airport or City:

Astronomy

Sep. 20, 2019 Rise Set
Actual Time 6:56 AM EDT 7:10 PM EDT
Civil Twilight 6:30 AM EDT 7:35 PM EDT
Nautical Twilight 5:59 AM EDT 8:06 PM EDT
Astronomical Twilight 5:29 AM EDT 8:36 PM EDT
Moon 11:07 PM EDT (9/20) 12:49 PM EDT (9/20)
Length of Visible Light 13h 05m
Length of Day
12h 14m
Waning Gibbous, 65% of the Moon is Illuminated
Sep 20
Waning Gibbous
Sep 21
Last Quarter
Sep 28
New
Oct 5
First Quarter
Oct 13
Full

Hourly Weather History & Observations

Time (EDT) Temp. Dew Point Humidity Pressure Visibility Wind Dir Wind Speed Gust Speed Precip Events Conditions
12:15 AM 50.4 °F 49.8 °F 98% 30.31 in 10.0 mi Calm Calm - N/A   Clear
12:35 AM 50.2 °F 50.0 °F 99% 30.31 in 10.0 mi Calm Calm - N/A   Clear
12:55 AM 50.5 °F 50.2 °F 99% 30.30 in 10.0 mi Calm Calm - N/A   Clear
1:15 AM 50.2 °F 49.8 °F 99% 30.30 in 10.0 mi Calm Calm - N/A   Clear
1:35 AM 49.1 °F 48.7 °F 99% 30.31 in 10.0 mi Calm Calm - N/A   Clear
1:55 AM 48.9 °F 48.7 °F 99% 30.31 in 10.0 mi Calm Calm - N/A   Clear
2:15 AM 48.9 °F 48.6 °F 99% 30.31 in 10.0 mi Calm Calm - N/A   Clear
2:55 AM 48.6 °F 48.6 °F 100% 30.31 in 10.0 mi Calm Calm - N/A   Clear
3:15 AM 48.6 °F 48.2 °F 99% 30.30 in 10.0 mi Calm Calm - N/A   Clear
3:35 AM 47.7 °F 47.5 °F 99% 30.30 in - Calm Calm - N/A   Unknown
3:55 AM 47.7 °F 47.3 °F 99% 30.30 in 10.0 mi Calm Calm - N/A   Clear
4:15 AM 47.5 °F 47.3 °F 99% 30.31 in 10.0 mi Calm Calm - N/A   Clear
4:35 AM 46.9 °F 46.9 °F 100% 30.31 in 10.0 mi Calm Calm - N/A   Clear
4:55 AM 47.3 °F 47.1 °F 99% 30.31 in 10.0 mi Calm Calm - N/A   Clear
5:15 AM 46.4 °F 46.4 °F 100% 30.32 in 10.0 mi Calm Calm - N/A   Clear
5:35 AM 46.6 °F 46.6 °F 100% 30.33 in 10.0 mi NE 3.5 mph - N/A   Clear
5:55 AM 47.1 °F 47.1 °F 100% 30.33 in 10.0 mi Calm Calm - N/A   Clear
6:15 AM 46.4 °F 46.4 °F 100% 30.33 in - Calm Calm - N/A   Unknown
6:35 AM 46.4 °F 46.4 °F 100% 30.34 in 7.0 mi Calm Calm - N/A   Clear
6:55 AM 45.7 °F 45.7 °F 100% 30.34 in 10.0 mi Calm Calm - N/A   Clear
7:15 AM 45.5 °F 45.5 °F 100% 30.34 in 10.0 mi Calm Calm - N/A   Clear
7:35 AM 46.8 °F 46.8 °F 100% 30.35 in 10.0 mi Calm Calm - N/A   Clear
7:55 AM 48.6 °F 48.4 °F 99% 30.35 in 10.0 mi Calm Calm - N/A   Clear
8:15 AM 50.9 °F 50.2 °F 97% 30.36 in 10.0 mi Calm Calm - N/A   Clear
8:35 AM 53.2 °F 51.6 °F 94% 30.36 in 10.0 mi Calm Calm - N/A   Clear
8:55 AM 55.6 °F 52.7 °F 90% 30.36 in 10.0 mi Calm Calm - N/A   Clear
9:15 AM 58.1 °F 54.3 °F 87% 30.36 in 10.0 mi Calm Calm - N/A   Clear
9:35 AM 60.3 °F 54.7 °F 82% 30.36 in 10.0 mi Calm Calm - N/A   Clear
9:55 AM 63.5 °F 53.8 °F 71% 30.36 in 10.0 mi Calm Calm - N/A   Clear
10:15 AM 65.7 °F 53.4 °F 65% 30.36 in 10.0 mi Calm Calm - N/A   Clear
10:35 AM 66.0 °F 52.7 °F 62% 30.36 in 10.0 mi Calm Calm - N/A   Clear
10:55 AM 66.4 °F 52.7 °F 61% 30.36 in 10.0 mi Calm Calm - N/A   Clear
11:15 AM 68.0 °F 52.7 °F 58% 30.35 in 10.0 mi Calm Calm - N/A   Clear
11:35 AM 68.0 °F 52.0 °F 56% 30.36 in 10.0 mi Calm Calm - N/A   Clear
11:55 AM 69.8 °F 53.1 °F 55% 30.35 in 10.0 mi North 3.5 mph - N/A   Clear
12:15 PM 69.8 °F 52.5 °F 54% 30.34 in 10.0 mi West 5.8 mph - N/A   Clear
12:35 PM 69.8 °F 52.5 °F 54% 30.33 in 10.0 mi WNW 4.6 mph - N/A   Clear
12:55 PM 70.3 °F 51.6 °F 51% 30.33 in 10.0 mi East 4.6 mph - N/A   Clear
1:35 PM 72.0 °F 52.2 °F 50% 30.31 in - West 3.5 mph - N/A   Clear
1:55 PM 72.0 °F 52.2 °F 50% 30.30 in 10.0 mi Calm Calm - N/A   Clear
2:15 PM 72.5 °F 51.6 °F 48% 30.29 in 10.0 mi Calm Calm - N/A   Clear
2:35 PM 73.8 °F 51.4 °F 45% 30.28 in 10.0 mi WSW 5.8 mph - N/A   Clear
2:55 PM 73.4 °F 50.4 °F 44% 30.28 in 10.0 mi Calm Calm - N/A   Clear
3:15 PM 75.0 °F 51.4 °F 44% 30.27 in 10.0 mi SE 4.6 mph - N/A   Clear
3:35 PM 75.0 °F 51.8 °F 44% 30.27 in 10.0 mi South 3.5 mph - N/A   Clear
3:55 PM 75.6 °F 51.8 °F 43% 30.26 in 10.0 mi Calm Calm - N/A   Clear
4:15 PM 75.9 °F 52.2 °F 43% 30.25 in 10.0 mi Calm Calm - N/A   Clear
4:35 PM 76.1 °F 51.8 °F 43% 30.26 in 10.0 mi Calm Calm - N/A   Clear
4:55 PM 75.6 °F 52.2 °F 44% 30.25 in 10.0 mi East 5.8 mph - N/A   Clear
5:15 PM 75.2 °F 52.0 °F 44% 30.26 in 10.0 mi Calm Calm - N/A   Clear
5:35 PM 76.8 °F 52.5 °F 43% 30.25 in 10.0 mi Calm Calm - N/A   Clear
5:55 PM 76.3 °F 53.2 °F 45% 30.26 in 10.0 mi SE 3.5 mph - N/A   Clear
6:15 PM 74.7 °F 53.1 °F 47% 30.26 in 10.0 mi Calm Calm - N/A   Clear
6:35 PM 73.6 °F 53.2 °F 49% 30.26 in 10.0 mi Calm Calm - N/A   Clear
6:55 PM 69.6 °F 56.8 °F 64% 30.26 in - Calm Calm - N/A   Clear
7:15 PM 67.6 °F 56.5 °F 67% 30.27 in 10.0 mi Calm Calm - N/A   Clear
7:35 PM 64.4 °F 55.8 °F 73% 30.27 in 10.0 mi Calm Calm - N/A   Clear
7:55 PM 60.4 °F 55.6 °F 84% 30.28 in 10.0 mi Calm Calm - N/A   Clear
8:15 PM 59.9 °F 55.8 °F 86% 30.28 in 10.0 mi Calm Calm - N/A   Clear
8:35 PM 58.6 °F 55.4 °F 89% 30.28 in 10.0 mi Calm Calm - N/A   Clear
8:55 PM 57.4 °F 55.0 °F 92% 30.29 in - Calm Calm - N/A   Unknown
9:15 PM 57.4 °F 55.0 °F 92% 30.29 in 10.0 mi Calm Calm - N/A   Clear
9:35 PM 57.2 °F 55.4 °F 94% 30.29 in 10.0 mi Calm Calm - N/A   Clear
9:55 PM 55.4 °F 54.3 °F 96% 30.29 in 10.0 mi Calm Calm - N/A   Clear
10:15 PM 55.0 °F 54.3 °F 97% 30.29 in 10.0 mi Calm Calm - N/A   Clear
10:35 PM 55.0 °F 53.6 °F 95% 30.29 in 10.0 mi Calm Calm - N/A   Clear
10:55 PM 54.9 °F 53.6 °F 96% 30.28 in 10.0 mi Calm Calm - N/A   Clear
11:15 PM 54.0 °F 53.4 °F 98% 30.29 in 10.0 mi Calm Calm - N/A   Clear
11:35 PM 53.1 °F 52.5 °F 98% 30.29 in 10.0 mi Calm Calm - N/A   Clear
11:55 PM 54.7 °F 53.1 °F 94% 30.29 in 10.0 mi Calm Calm - N/A   Clear